Wind_Speed
67 65 64 64 63 62 62 61 61 59 57 56 55 55 51 47 46 45 39 34 30 27 24 23 22 23 25 25 22 21 22 21 20 22 23 24 28 32 34 34 34 36 34 30 28 26 23 22 23 24 24 24 23 23 23 23 22 22 23 23 24 24 24 24 24 25 26 27 27 26 25 24 24 23 23 23 23 22 21 20 19 18 17 17 16 16 15
66 64 64 64 62 61 61 61 61 61 60 59 57 54 50 47 45 41 35 32 29 27 26 26 26 27 28 26 23 22 23 21 20 23 24 24 26 29 31 33 35 34 31 28 28 27 25 24 25 26 25 23 22 22 22 22 22 22 23 23 23 23 24 24 25 26 26 26 26 25 24 24 24 24 24 24 23 22 21 20 19 18 17 16 16 16 15
64 64 64 64 61 59 59 60 62 63 62 60 57 52 48 46 43 38 34 32 30 29 30 31 31 31 29 28 27 26 26 23 21 21 23 24 26 27 30 33 35 33 30 29 29 28 27 26 26 25 24 21 19 20 21 21 22 22 23 23 24 24 24 25 26 25 25 25 25 25 25 25 25 25 25 25 24 23 22 20 19 18 17 16 15 16 16
63 64 65 64 60 57 57 60 62 62 61 59 54 50 48 45 41 37 36 35 32 32 34 35 33 33 31 29 29 28 27 26 23 20 18 20 24 27 29 31 32 31 31 31 31 30 28 27 27 25 23 21 20 18 19 20 21 22 23 24 24 25 25 26 26 25 24 24 24 24 25 25 26 26 26 25 24 23 22 21 19 18 16 16 16 16 16
62 65 65 63 58 56 56 59 62 62 60 58 53 49 48 46 41 38 39 38 35 35 38 37 34 33 32 30 30 28 28 28 24 20 16 16 19 24 26 26 29 32 32 31 30 31 30 28 27 25 23 22 21 18 18 19 20 20 21 22 23 24 25 26 25 24 24 23 23 23 23 24 25 26 25 24 23 22 21 20 19 17 16 16 16 16 15
61 65 66 61 56 57 59 60 62 62 60 56 52 49 49 48 45 43 42 39 36 37 39 39 36 34 33 31 30 29 29 28 24 20 17 14 16 21 23 26 29 31 30 29 30 32 30 28 27 25 24 23 22 20 20 20 21 21 20 20 20 21 22 22 22 22 22 22 22 22 22 23 24 23 22 22 22 22 20 19 18 17 17 16 17 17 17
61 65 67 60 54 56 60 61 63 63 60 56 53 51 52 50 46 45 42 38 36 36 38 39 39 37 35 33 32 31 31 29 25 20 17 14 15 20 25 28 30 30 28 29 31 31 29 29 29 28 27 26 24 23 22 21 22 23 23 21 20 18 17 17 18 18 19 19 20 20 21 21 21 20 20 21 21 20 20 19 18 18 18 18 18 19 18
62 66 69 63 54 54 60 61 62 62 58 55 54 51 50 50 46 43 42 37 34 36 38 41 41 39 37 35 34 33 32 31 26 20 17 15 16 20 26 29 30 29 29 31 31 29 28 30 31 30 28 28 26 25 24 23 23 23 24 22 20 18 16 15 15 15 15 16 16 17 17 17 17 17 18 19 20 20 20 20 19 19 20 19 19 19 19
64 68 71 64 52 52 58 59 59 61 58 54 52 50 49 49 47 44 42 37 35 37 39 40 42 42 39 36 35 35 35 32 27 21 19 19 19 22 27 29 30 30 31 32 33 31 31 31 31 30 31 30 30 28 27 26 24 24 24 23 21 19 17 15 15 15 14 14 14 14 14 14 14 15 16 18 19 20 20 21 21 21 22 22 21 21 22
65 69 72 65 52 49 55 56 55 60 61 55 52 52 50 50 49 46 42 39 39 41 40 39 41 42 39 37 37 37 37 35 29 24 23 23 23 26 30 31 32 33 34 34 35 35 35 34 32 32 32 32 32 32 31 29 28 26 25 24 22 20 18 17 17 17 16 16 15 14 13 13 14 15 16 18 19 20 20 21 22 23 24 24 24 23 23
67 70 74 68 53 46 53 57 53 56 61 58 53 52 50 49 49 47 43 41 42 43 41 39 40 39 38 39 40 39 38 36 31 27 26 25 24 27 31 33 34 37 37 37 38 38 38 38 37 36 35 34 33 33 32 32 31 29 28 26 24 22 21 20 19 19 19 18 17 16 15 14 15 15 17 18 20 20 21 22 23 25 26 26 25 25 24
69 72 76 71 55 45 51 58 53 52 59 58 53 52 50 49 50 49 45 44 45 44 42 40 39 37 37 39 41 39 38 36 32 29 28 27 25 25 28 32 35 38 40 40 40 41 41 41 40 40 38 37 35 35 34 34 34 32 30 28 28 27 25 23 22 22 22 21 20 20 18 17 17 17 17 18 20 21 21 22 24 26 27 26 26 26 26
71 74 76 72 58 46 50 58 54 52 58 59 56 55 51 49 52 51 48 48 47 46 44 41 39 38 38 39 40 40 38 36 34 32 30 29 28 27 27 29 32 35 38 40 41 42 42 42 40 40 39 38 38 37 37 37 36 35 34 33 32 31 29 27 26 25 24 23 23 23 22 21 20 19 19 19 19 20 22 23 25 26 27 27 27 27 27
71 76 76 73 62 48 48 56 55 54 59 61 60 59 53 50 54 54 51 50 50 48 46 43 40 41 42 41 41 40 38 37 36 34 33 32 31 30 29 28 29 31 33 36 38 39 39 39 39 40 39 38 38 38 38 38 38 38 38 37 35 33 31 30 28 27 27 26 25 25 25 24 22 21 20 20 20 21 22 24 25 26 27 28 28 28 28
70 74 75 75 67 51 48 54 55 56 62 64 63 62 57 52 55 57 54 53 52 50 48 45 44 44 44 44 44 42 39 38 38 36 35 35 34 33 32 30 29 30 30 31 32 34 35 36 38 40 40 39 38 38 38 38 38 38 38 38 36 34 33 31 29 28 28 28 27 27 26 25 24 23 22 21 21 21 22 23 25 27 27 28 29 29 29
73 71 73 75 70 57 51 52 52 56 63 65 65 66 60 55 58 60 57 55 53 52 51 50 48 47 47 46 45 43 40 38 37 37 36 35 35 34 33 31 30 30 30 30 31 33 35 36 38 40 41 40 39 39 38 38 38 38 38 39 37 36 34 32 30 30 29 29 29 28 28 27 26 25 24 23 22 21 21 22 23 26 28 28 29 30 30
77 73 73 75 72 65 57 50 49 56 61 63 67 68 62 58 62 64 61 57 56 55 55 55 53 51 50 48 45 44 41 38 36 36 35 34 34 34 34 33 31 29 29 30 31 32 33 34 35 37 39 40 40 40 39 39 40 40 41 41 39 37 36 34 32 32 31 30 30 30 30 30 29 28 27 25 23 22 21 20 20 22 26 29 30 30 30
76 76 75 77 75 72 63 51 51 57 57 57 65 69 64 62 66 67 65 61 60 60 59 59 58 54 51 50 47 44 42 39 36 37 36 34 33 33 33 33 32 29 29 28 29 29 29 30 31 32 35 38 39 40 41 41 41 41 41 41 40 39 38 36 35 35 34 32 31 32 33 33 33 32 30 28 25 23 21 20 19 19 23 27 30 31 31
73 78 78 77 77 76 68 54 53 58 55 57 67 71 67 67 69 69 69 66 63 64 62 61 62 58 52 52 49 45 44 40 37 36 37 36 35 33 33 34 33 30 28 28 28 27 27 27 28 29 31 34 37 39 42 43 43 44 43 43 42 41 40 40 39 38 37 36 35 35 35 35 35 34 33 31 28 25 23 22 20 19 21 26 29 30 31
71 79 80 78 77 79 73 58 53 58 55 56 67 71 68 71 73 72 73 70 67 66 63 60 62 61 56 54 53 49 47 44 40 38 37 37 37 36 35 36 35 33 31 29 28 28 27 27 28 28 29 31 34 37 39 42 43 45 45 45 45 44 44 44 44 43 41 40 39 37 37 37 37 36 36 34 32 29 26 25 23 22 21 24 27 30 31
66 78 80 80 78 79 77 63 55 58 55 53 63 69 67 70 75 75 74 74 71 69 64 60 62 64 61 57 55 53 50 47 44 42 40 38 38 39 39 38 38 37 34 32 30 30 29 29 29 29 29 30 31 32 35 37 39 41 42 43 44 44 45 45 45 45 44 44 43 41 40 39 39 39 38 38 36 35 32 29 28 26 24 24 26 29 31
62 74 78 79 78 78 79 70 58 57 55 51 58 66 67 69 73 75 76 77 75 74 70 64 62 63 62 60 58 56 54 52 48 46 44 42 41 40 40 41 40 39 37 35 34 33 33 33 32 30 30 29 29 30 31 32 34 36 37 39 40 40 41 42 42 43 42 42 42 41 40 40 41 41 41 41 40 39 38 35 33 30 28 26 26 28 30
56 70 73 76 79 78 79 77 66 58 55 52 53 61 67 69 70 72 76 79 77 75 75 71 65 62 60 60 60 58 56 55 53 50 47 46 44 43 42 41 40 40 39 38 37 37 37 37 35 33 31 29 28 29 30 30 31 32 33 34 35 35 36 37 37 38 38 38 38 38 38 38 39 40 41 42 42 42 42 40 38 35 33 31 30 30 30
48 64 71 74 79 79 79 79 75 65 58 54 51 53 59 67 70 69 71 77 78 74 73 73 68 63 60 59 59 59 58 57 55 52 51 49 47 46 45 42 40 41 41 40 40 40 39 39 38 35 33 30 28 29 30 30 31 31 31 31 32 32 32 32 33 33 33 33 33 34 35 35 36 37 38 40 42 43 43 43 42 40 38 35 34 33 32
38 55 68 73 75 78 79 80 79 73 65 58 54 49 48 56 67 69 68 74 77 74 72 73 70 64 61 61 60 59 59 59 55 53 53 52 51 49 48 45 42 43 43 42 41 40 39 38 38 37 36 33 30 30 31 31 31 31 31 31 31 30 30 30 31 31 31 31 31 32 32 33 34 34 36 37 39 40 41 43 44 43 41 39 37 37 36
33 44 61 72 73 74 76 78 79 79 74 67 62 55 45 44 55 62 63 70 78 76 71 71 72 67 62 62 62 61 61 61 58 54 53 53 52 51 50 46 43 42 42 41 41 41 40 40 40 39 38 36 34 33 33 33 33 32 32 31 31 31 31 31 32 32 32 32 32 32 32 33 34 34 34 35 36 38 39 41 42 43 43 41 40 40 39
37 39 53 69 73 70 70 73 75 79 79 75 71 66 56 47 47 49 48 57 73 79 74 70 71 69 64 61 61 64 65 64 61 57 55 55 55 53 51 47 42 39 37 37 39 41 41 41 41 41 40 38 37 36 35 35 35 34 34 33 32 32 32 33 33 33 33 33 33 32 32 33 34 35 35 35 35 36 37 39 40 42 43 43 43 43 42
42 42 50 64 71 69 68 69 72 76 79 77 74 73 69 63 57 48 38 40 55 70 75 73 70 68 64 60 59 62 65 65 63 60 59 58 57 56 53 50 45 40 38 38 38 37 37 39 41 42 41 40 39 39 38 37 36 36 35 35 34 33 34 34 34 34 34 33 33 33 32 32 33 35 36 36 35 36 37 38 40 41 42 44 45 45 45
47 46 50 58 65 68 71 72 73 76 78 77 74 74 73 70 67 61 49 40 41 51 63 70 71 69 66 63 61 61 62 62 62 62 61 60 59 58 55 52 49 46 45 44 39 34 33 35 37 39 40 41 41 40 40 39 38 38 37 37 36 36 36 36 36 36 35 34 34 34 33 33 33 35 35 36 37 37 38 38 39 41 42 44 45 46 47
54 53 53 55 58 63 69 74 75 77 79 79 77 76 74 71 69 67 62 53 45 43 46 54 63 69 69 67 65 64 63 62 62 62 61 61 60 58 55 52 50 48 48 47 42 36 34 33 32 33 36 40 41 41 41 40 40 40 39 39 38 38 38 38 37 37 36 36 35 35 34 34 34 35 36 37 38 37 38 39 40 42 42 42 43 45 47
52 58 60 60 58 60 66 72 75 77 79 80 80 80 80 77 73 70 68 63 56 49 45 45 49 58 65 68 68 67 66 65 65 64 62 61 60 58 54 50 48 48 48 47 44 40 37 35 31 30 32 36 39 41 41 41 41 41 41 40 40 40 39 39 38 38 38 37 37 36 36 36 36 36 37 38 39 38 38 40 41 41 41 41 41 41 44
37 50 61 67 66 64 65 69 72 74 77 79 80 81 81 80 79 77 75 71 65 59 54 48 44 45 51 59 65 68 69 68 66 66 65 62 60 57 54 51 49 48 47 47 46 44 41 39 36 33 32 34 37 39 41 41 42 42 42 41 41 41 40 40 39 39 39 38 38 38 38 38 37 38 39 40 41 41 41 42 41 40 41 41 40 39 42
29 37 50 63 70 71 70 69 71 72 73 76 78 79 78 77 77 78 79 79 76 70 64 58 53 47 44 45 51 60 67 69 68 66 65 63 60 58 56 53 52 51 49 48 47 45 43 43 41 38 36 35 36 38 40 41 42 42 42 41 41 42 42 41 41 41 40 39 39 39 39 39 39 39 40 41 42 43 43 42 42 41 42 42 42 42 43
26 33 40 50 60 69 74 74 74 74 74 74 76 76 75 74 73 74 75 78 79 78 74 70 66 61 53 45 43 47 56 63 66 66 64 63 61 60 58 56 55 53 51 50 48 45 44 44 44 43 41 38 36 38 41 42 43 43 43 42 42 42 42 42 42 42 42 41 40 41 41 40 40 40 41 42 43 43 44 43 43 44 44 44 45 45 45
17 27 37 43 49 58 69 77 79 78 77 76 76 76 75 73 72 72 72 72 74 77 79 78 76 73 66 57 49 45 47 53 60 62 62 61 61 60 58 57 56 54 52 50 49 48 47 46 45 44 44 41 38 38 40 42 44 44 44 43 42 42 42 42 43 43 43 43 43 43 43 43 42 42 42 42 43 44 44 45 45 46 46 47 47 48 48
9 13 25 36 42 47 57 68 76 81 82 81 80 80 80 80 77 74 72 71 70 72 75 78 79 79 77 70 61 52 48 49 54 58 60 60 60 58 57 56 55 53 52 52 52 50 49 47 46 45 44 42 40 40 40 41 42 43 44 44 44 43 43 43 43 44 44 45 45 46 46 45 44 44 44 44 44 45 46 47 48 48 49 49 50 50 50
11 8 8 19 29 36 43 51 60 70 79 85 86 84 84 85 86 84 81 77 75 73 73 74 76 77 78 77 73 65 57 52 51 53 56 59 60 58 56 54 53 51 50 50 50 48 46 44 43 44 44 43 43 43 41 40 40 40 40 42 43 43 43 43 43 44 44 45 46 46 47 47 47 46 46 47 47 48 49 50 51 52 52 52 52 52 52
13 9 3 3 10 19 28 35 41 47 58 71 83 88 88 88 88 89 88 85 83 80 78 76 75 74 73 74 74 72 67 61 56 53 53 55 56 56 55 53 50 47 45 45 45 45 43 39 38 39 41 42 44 44 43 41 40 39 39 40 41 43 43 44 44 44 45 45 46 47 47 48 49 49 50 50 51 52 53 53 54 54 54 54 54 54 54
14 10 5 1 3 7 14 21 27 31 36 47 61 77 87 90 90 89 88 87 86 85 83 81 78 75 73 70 69 68 68 66 61 57 56 56 56 56 56 54 51 48 47 47 48 47 44 41 39 39 40 41 42 43 43 43 42 42 42 43 43 44 45 46 47 47 47 47 48 48 49 50 50 50 51 52 52 53 54 55 56 56 56 56 56 56 56
10 9 6 3 3 6 10 15 18 22 26 32 41 54 70 83 89 90 90 88 87 85 85 84 82 79 75 72 68 66 66 65 62 58 57 58 59 60 59 58 57 56 55 55 55 53 50 49 47 47 47 48 48 49 49 49 49 48 48 48 48 48 48 49 50 51 51 51 52 52 53 53 54 54 55 56 57 57 57 58 58 59 59 59 59 59 59
6 7 6 4 5 8 10 12 13 15 18 23 30 38 51 65 77 85 89 90 89 87 84 83 83 82 80 76 71 68 67 67 64 61 58 59 60 60 60 61 62 63 63 63 63 62 61 60 58 57 57 56 56 57 57 56 55 55 53 52 51 51 51 52 53 54 54 55 56 56 56 57 58 59 60 61 62 62 62 62 62 62 62 62 62 62 62
5 5 4 4 5 5 5 6 8 9 12 16 21 28 37 48 60 72 81 87 90 90 88 84 83 83 82 80 77 72 70 70 70 69 67 65 64 63 63 64 65 66 67 68 68 67 67 67 65 63 60 58 58 58 58 58 58 57 55 53 53 54 54 54 55 56 57 58 58 59 60 60 61 62 63 64 65 65 66 65 65 65 64 64 64 64 64
5 2 2 4 4 2 2 3 3 6 9 13 16 20 27 36 46 56 67 76 83 88 89 88 85 83 82 82 80 77 73 72 73 74 74 73 72 71 71 70 70 70 71 71 71 70 70 69 67 65 62 60 58 58 57 58 58 57 55 54 55 56 56 56 56 57 59 60 61 62 63 64 65 66 66 67 68 68 68 68 67 66 66 66 66 66 66
9 2 2 5 6 4 4 6 6 5 8 10 12 13 17 25 34 44 53 61 70 78 84 87 87 86 84 83 81 79 77 75 75 75 75 76 76 76 75 75 75 75 75 75 74 72 71 69 67 65 64 62 60 58 57 57 56 55 55 56 57 57 58 58 58 58 59 61 63 64 65 67 68 69 70 70 70 70 70 70 69 69 69 69 69 69 68
12 8 4 3 3 3 4 7 9 8 6 7 10 11 11 14 21 30 38 46 54 62 69 75 80 83 84 84 83 82 80 78 77 77 77 76 76 76 77 78 79 79 79 78 76 74 72 70 68 65 64 62 61 59 58 56 55 54 53 54 55 56 56 58 58 58 59 60 63 65 66 67 68 68 69 70 72 72 72 72 72 72 72 72 71 70 69
12 10 8 6 3 1 1 4 8 10 8 8 11 14 13 11 14 18 24 31 38 46 52 58 64 70 75 79 81 81 81 79 78 77 77 76 76 77 77 77 78 79 80 78 76 74 72 70 68 66 64 63 62 61 59 57 56 54 52 51 51 53 56 58 59 61 62 64 66 67 68 69 71 71 71 71 71 72 73 75 75 75 75 74 72 71 69
12 10 10 9 7 4 2 1 4 8 10 11 13 15 15 15 16 18 20 23 26 30 35 41 48 54 60 65 70 74 76 77 77 77 77 76 75 75 76 76 76 76 76 75 74 73 71 69 68 66 65 64 63 62 61 60 58 55 53 50 50 53 57 59 58 59 63 68 72 73 72 72 73 75 74 72 71 71 74 76 77 77 76 74 72 70 69
13 11 10 10 10 8 6 3 1 4 6 9 12 13 15 16 19 22 24 25 26 27 28 30 35 40 46 52 57 62 66 69 71 73 74 74 74 74 75 75 75 74 74 73 72 72 71 70 68 67 66 65 63 62 62 62 60 57 54 51 50 53 57 58 56 53 52 56 59 63 65 67 69 71 72 71 71 71 72 73 74 74 74 72 71 70 69
14 12 10 10 10 9 9 7 5 4 3 5 7 10 12 14 18 21 25 27 29 32 34 33 31 31 34 39 44 49 54 59 62 64 66 68 69 70 71 71 71 71 71 70 70 69 68 67 65 64 63 62 60 59 59 59 58 57 55 53 53 55 57 56 52 44 40 40 41 42 45 49 53 56 59 60 60 61 61 61 62 63 64 65 66 66 67
15 13 11 10 10 10 10 9 8 7 7 5 4 6 8 11 14 18 22 25 28 32 36 37 35 32 30 31 34 37 40 44 47 51 54 55 57 59 61 62 62 63 63 62 61 60 59 58 56 54 53 52 52 54 55 55 54 54 53 53 53 55 58 59 57 53 51 50 49 48 46 45 45 45 47 48 49 50 51 51 52 53 54 55 56 58 59
15 14 13 11 10 10 10 10 10 10 9 9 7 6 6 7 10 13 17 21 25 29 33 36 37 36 35 34 35 36 37 37 39 41 42 43 44 46 48 49 50 51 52 51 50 49 49 49 50 50 47 45 45 50 54 55 55 55 54 53 54 56 59 61 63 64 65 64 64 63 60 56 51 49 48 47 48 48 49 49 50 51 51 51 52 54 55
15 15 14 13 12 11 11 10 11 12 11 11 10 10 9 8 8 10 12 15 19 24 28 32 35 37 38 39 40 41 41 41 40 40 40 41 42 44 46 46 45 44 43 44 45 47 48 49 50 50 47 43 42 47 51 53 54 54 53 54 56 59 61 61 62 65 66 67 66 64 62 59 56 53 52 51 50 49 49 48 48 49 49 50 51 52 53
Wind_Direction
198 197 196 198 203 205 206 208 209 209 209 209 210 210 210 211 214 212 213 217 209 199 201 196 187 192 197 195 199 208 213 213 211 207 206 203 201 203 202 199 202 208 208 207 206 200 196 195 195 197 196 193 192 191 190 191 192 192 193 192 192 190 188 186 186 188 191 195 198 201 202 203 205 206 208 210 214 218 219 219 220 223 226 229 231 234 236
197 196 195 196 201 203 205 207 208 209 209 210 210 210 209 210 212 212 214 217 209 195 191 189 188 196 201 194 190 200 210 209 205 205 204 203 203 203 201 201 205 207 204 201 199 195 193 193 193 195 193 189 191 192 190 190 192 193 195 194 194 193 190 189 190 192 194 196 199 200 202 204 206 208 210 213 216 218 217 217 219 222 225 228 230 233 236
196 195 193 195 199 201 204 207 208 209 211 211 211 210 209 209 210 210 211 212 202 187 185 189 193 197 202 199 193 199 209 207 197 197 197 200 205 204 201 203 206 204 200 198 195 191 189 190 192 193 189 182 182 186 188 189 191 193 195 195 195 195 195 196 196 196 196 198 199 200 201 204 207 209 211 213 215 215 215 216 218 220 224 227 229 232 235
196 194 192 193 196 198 202 207 209 210 211 211 210 209 208 209 209 208 208 206 195 183 186 192 194 198 204 205 200 202 209 204 192 188 192 199 206 205 204 206 205 201 200 199 194 189 188 189 190 189 181 170 167 171 178 184 187 191 194 195 196 197 198 200 200 199 199 199 200 201 203 205 207 209 210 212 213 214 215 217 218 220 223 227 230 232 233
196 195 191 190 195 198 201 206 209 209 209 210 209 208 208 207 206 205 206 204 194 187 191 194 194 199 205 208 206 207 212 209 198 189 192 199 207 210 208 205 201 199 200 199 194 190 190 189 187 182 172 161 155 156 165 173 177 181 185 190 193 196 200 201 201 201 200 200 201 202 204 206 208 210 211 212 213 215 216 218 219 221 225 229 233 235 235
198 195 189 188 195 200 201 205 209 208 208 207 206 206 207 206 204 203 203 203 198 193 194 196 196 198 204 208 210 211 216 217 207 195 194 201 208 209 204 199 198 198 198 196 192 191 191 189 185 178 168 160 158 162 166 169 169 170 173 178 184 192 198 200 201 202 201 201 202 203 204 207 208 210 211 213 216 219 221 223 224 225 226 229 232 234 235
200 194 188 188 196 200 201 205 209 208 206 204 203 204 206 206 204 201 201 202 201 199 197 198 198 199 203 208 211 214 219 221 212 200 200 205 209 204 196 194 196 194 190 188 188 191 191 187 184 179 171 169 173 176 176 174 171 170 171 173 178 183 189 191 194 198 200 201 204 206 208 210 211 212 215 218 222 225 226 228 228 228 229 230 232 234 235
201 194 188 189 195 198 201 205 208 208 206 204 204 203 204 205 203 200 201 201 200 202 202 200 200 202 204 208 213 218 222 222 213 205 208 210 205 198 193 192 191 186 182 183 185 187 188 186 185 181 176 179 184 183 181 180 177 174 173 174 176 180 182 185 187 190 193 198 204 207 210 212 213 216 220 224 228 230 231 232 232 232 233 233 233 232 232
201 195 189 189 192 196 200 205 207 206 204 201 201 201 202 204 202 199 199 198 197 202 205 202 201 203 205 209 215 219 223 222 215 207 208 206 197 190 188 187 186 181 178 181 184 186 188 188 186 183 184 186 187 186 186 186 183 179 176 175 177 181 185 191 195 197 197 200 204 208 208 208 211 217 222 226 230 232 233 234 234 234 235 233 231 230 229
201 195 190 189 191 192 197 202 204 205 202 198 198 199 200 202 201 197 197 196 196 202 205 204 203 203 203 208 215 220 223 223 218 211 206 201 193 188 185 182 181 180 179 182 186 189 192 192 191 190 191 191 189 188 189 190 190 186 181 181 182 185 190 197 203 206 207 207 208 211 212 211 213 219 224 228 230 231 232 233 233 233 233 232 230 228 229
200 195 191 190 189 188 193 199 201 201 200 196 194 196 197 199 199 196 194 193 195 200 204 205 206 204 204 207 213 217 221 222 218 211 203 200 195 190 187 184 182 182 183 185 188 191 193 195 195 195 196 195 193 192 192 193 194 191 188 187 189 192 197 204 209 212 213 214 214 215 217 218 220 225 229 230 231 231 232 233 233 232 232 231 229 227 228
199 196 192 191 188 183 190 197 198 197 197 194 191 193 196 197 197 194 192 192 195 199 203 206 207 207 208 212 215 216 217 217 215 208 201 199 198 194 192 192 188 188 189 190 191 192 193 195 197 198 198 197 195 195 196 196 196 194 193 194 196 197 201 207 213 216 217 218 220 220 221 223 226 230 234 235 235 234 233 234 234 233 232 231 228 226 226
198 197 194 192 188 181 186 194 197 195 195 194 194 196 196 195 194 192 190 191 194 199 204 207 209 209 209 213 216 217 216 213 211 206 199 197 198 197 199 201 199 198 197 196 195 195 196 197 198 200 201 200 197 197 199 199 198 196 197 199 201 202 203 207 212 216 218 220 222 223 225 226 228 232 236 238 240 239 236 234 234 234 233 231 228 225 224
198 199 197 193 188 182 182 190 195 194 194 196 198 198 197 194 191 189 188 190 194 199 204 207 209 211 211 211 214 216 215 211 208 203 198 197 198 199 202 205 207 207 206 204 202 201 200 200 201 203 204 203 201 200 200 202 202 200 199 201 204 205 206 207 210 214 217 221 224 226 227 229 231 233 236 239 242 243 241 238 234 233 232 231 229 226 225
198 201 201 196 190 185 182 185 189 190 193 197 198 199 198 194 190 188 187 190 195 199 203 207 210 212 212 212 214 216 216 213 208 203 200 199 199 201 203 205 207 209 209 208 205 202 200 201 203 205 207 206 204 202 202 204 206 204 201 202 205 207 207 208 210 213 216 221 226 228 228 230 233 236 237 238 241 245 247 244 237 232 230 231 229 228 227
202 203 204 200 193 187 184 184 184 186 192 196 198 199 198 193 189 189 189 190 195 199 203 207 211 213 213 214 216 218 219 218 211 205 202 202 202 203 204 206 207 207 208 206 202 200 199 199 201 205 207 207 206 203 202 204 205 205 204 205 207 208 208 209 211 213 215 221 227 230 230 230 234 237 239 240 241 243 247 248 242 233 228 228 229 228 229
205 205 206 203 197 192 189 186 183 185 190 194 196 198 197 192 190 190 190 191 196 202 206 208 210 212 213 214 216 218 220 222 219 212 206 204 203 204 204 205 205 205 205 204 201 200 199 198 199 202 204 206 206 203 203 204 205 205 206 207 209 209 209 209 211 212 213 218 226 230 232 232 234 236 238 239 241 242 245 249 248 238 229 226 227 228 230
203 205 207 207 203 198 193 187 184 186 189 193 195 196 195 192 192 192 191 192 197 204 209 210 208 208 211 212 213 216 218 221 223 220 214 208 205 205 206 205 206 206 205 201 199 197 196 196 197 199 202 205 205 204 203 204 205 206 208 209 209 209 209 209 211 211 211 215 221 227 232 235 237 239 239 239 239 241 244 249 252 244 232 227 227 228 230
197 203 207 208 206 202 197 190 183 184 187 191 192 193 193 192 193 194 193 193 198 204 209 210 204 202 206 208 208 211 215 218 220 222 220 214 209 209 210 209 210 211 210 204 199 196 194 195 197 198 201 204 205 206 205 204 205 206 207 208 209 209 210 210 211 211 211 213 217 223 228 233 237 241 243 243 242 242 244 248 252 247 236 230 230 231 231
194 201 206 208 207 204 200 195 185 182 185 187 187 190 193 192 194 195 193 193 198 203 206 206 201 198 201 205 207 209 212 214 217 219 221 218 214 212 213 213 213 216 216 212 205 200 197 198 198 200 202 204 206 208 209 209 210 210 210 211 211 211 212 212 212 213 212 213 216 220 224 228 234 239 243 247 248 247 246 246 248 248 241 234 233 234 235
191 200 205 207 207 205 202 199 189 183 184 184 184 188 193 194 195 197 194 192 197 203 204 203 200 199 201 204 206 208 209 211 214 217 219 221 219 216 214 214 215 217 218 216 212 208 205 203 201 201 203 205 207 210 211 212 214 215 216 218 218 218 218 218 218 218 218 218 218 220 221 224 228 233 238 243 247 250 249 247 245 245 244 240 236 237 238
190 200 205 206 208 206 203 201 195 187 186 186 184 189 195 196 197 198 195 192 196 201 204 203 199 197 201 205 206 207 208 209 212 215 217 220 223 222 219 216 217 218 218 217 216 214 212 210 207 204 204 205 209 212 213 214 215 217 218 220 222 223 224 225 226 227 227 227 226 226 226 227 228 230 233 237 242 246 249 250 247 245 244 243 241 240 239
191 199 205 207 208 208 205 204 203 195 191 189 187 189 195 198 198 198 195 194 196 199 202 206 204 198 200 206 208 207 209 209 210 214 217 219 222 225 224 219 218 220 220 220 219 218 216 214 212 210 208 208 211 215 216 216 217 219 221 222 222 224 226 227 229 231 232 233 233 233 234 234 234 233 233 235 238 241 245 248 250 249 246 244 243 242 241
191 199 205 207 209 209 208 208 209 205 198 194 190 190 194 198 199 199 196 195 198 199 201 206 209 205 203 207 210 210 211 212 212 215 218 219 221 224 226 225 223 223 223 223 223 222 220 218 218 217 215 215 217 220 221 220 219 220 222 224 226 227 228 229 231 233 234 235 236 237 238 239 239 239 237 237 238 239 241 244 248 249 249 247 246 245 244
196 202 205 207 209 211 211 212 213 212 208 203 197 194 192 192 196 200 200 197 199 202 203 206 211 211 208 209 212 214 214 214 214 215 218 220 222 224 228 230 227 224 224 224 225 227 227 226 225 225 224 223 224 225 226 225 223 222 223 224 227 229 231 233 235 236 237 238 239 239 240 241 242 242 241 241 241 241 241 242 245 248 249 249 248 247 247
208 208 207 207 209 213 214 215 216 216 216 214 209 207 203 196 194 199 201 200 201 204 206 208 212 214 212 210 212 215 216 215 214 214 216 220 223 226 229 230 228 226 225 224 225 229 233 234 233 231 230 229 229 228 228 227 227 226 226 227 229 231 233 235 237 239 240 241 241 241 242 243 244 245 245 245 244 244 244 244 244 246 248 249 249 249 249
217 216 211 208 210 213 216 218 220 220 220 219 218 217 218 217 209 200 195 196 200 203 206 208 211 214 213 210 211 213 215 215 214 214 216 220 224 227 229 229 228 227 225 222 222 226 230 234 235 235 233 233 232 231 229 229 229 229 229 230 232 234 236 237 239 240 241 242 243 243 243 244 246 247 248 248 249 249 248 248 247 246 247 248 249 250 250
223 220 214 209 210 214 217 219 221 222 223 223 224 223 223 225 224 216 202 192 196 202 205 208 210 212 211 208 206 206 209 212 213 215 218 221 224 227 228 227 227 226 222 218 218 223 229 233 235 236 236 235 234 233 231 231 232 232 232 233 234 236 238 240 241 241 242 243 244 245 246 246 247 249 250 252 252 252 252 252 252 251 249 248 248 249 250
229 224 219 214 213 215 219 221 222 224 225 225 226 227 227 227 229 228 220 204 194 197 203 207 209 211 209 206 204 204 207 210 213 216 219 222 225 227 227 228 228 227 223 219 221 227 233 235 236 237 237 237 237 235 234 234 235 236 236 236 236 237 238 240 242 242 243 244 245 246 247 248 249 251 253 254 255 255 256 256 256 255 253 251 250 250 250
236 230 225 222 219 218 219 221 223 225 227 228 228 228 228 229 229 230 228 219 206 197 196 201 207 210 211 210 210 210 211 213 216 218 220 223 225 227 227 227 227 227 224 223 228 236 239 238 239 240 239 237 237 237 237 237 238 239 240 240 240 240 240 240 241 242 243 245 246 248 249 251 252 253 255 256 257 258 260 259 258 257 256 256 255 255 253
239 235 231 228 226 223 221 222 223 224 227 230 231 230 230 230 230 230 231 228 221 211 203 200 203 208 211 212 213 213 214 216 218 220 221 223 225 227 227 227 228 228 227 229 235 240 242 244 248 249 243 238 236 236 237 238 240 241 242 242 242 242 242 242 242 243 244 245 247 249 250 252 253 254 256 258 259 260 260 258 257 257 258 260 261 260 257
237 236 234 232 231 228 224 223 224 225 225 228 231 232 232 232 232 232 232 232 230 226 219 212 208 209 210 212 213 214 215 217 219 220 222 224 226 227 229 230 230 230 232 235 239 243 248 252 254 251 245 240 236 234 234 236 238 240 242 243 243 243 243 243 244 245 246 247 249 250 251 252 254 255 256 258 259 260 260 260 259 259 259 261 261 258 254
241 236 234 234 233 232 230 227 226 227 227 227 229 232 233 233 234 235 235 235 236 235 231 225 222 221 219 217 215 214 215 217 219 220 222 224 226 227 230 232 233 233 235 238 241 247 255 260 258 251 243 240 238 235 233 234 236 237 239 241 242 243 244 245 246 248 249 250 251 252 252 253 254 255 256 257 259 260 260 261 261 260 259 259 258 255 252
247 239 235 233 232 233 233 232 230 229 229 229 229 230 233 234 235 236 238 238 238 239 238 236 235 234 232 229 224 219 216 216 218 220 222 223 225 227 229 231 233 235 238 240 245 252 259 262 258 249 241 239 239 237 234 234 236 237 237 239 240 242 244 246 248 249 250 251 251 252 253 254 253 254 255 256 257 259 259 259 259 258 258 257 257 256 255
259 244 236 233 231 230 232 233 234 233 233 232 231 230 232 234 235 236 238 239 240 241 241 241 241 240 238 236 233 228 221 217 217 220 222 224 225 228 230 232 235 238 240 242 248 255 260 260 254 244 237 237 240 240 236 235 236 238 238 239 239 240 242 244 247 249 251 252 252 252 253 253 253 253 254 254 255 256 257 258 258 258 258 258 258 258 258
315 263 238 231 230 229 229 230 232 234 235 236 235 234 233 233 235 236 237 238 239 241 242 242 242 242 242 240 237 233 228 222 219 220 223 225 227 229 231 233 236 240 243 247 251 255 258 257 250 240 234 235 238 238 236 235 236 239 241 241 241 241 241 242 244 246 249 251 252 253 253 253 252 252 253 253 254 254 255 256 257 258 258 258 259 259 260
359 334 256 229 228 229 228 228 229 230 232 233 235 236 236 235 234 236 237 238 239 240 241 242 242 243 243 243 241 238 235 231 227 225 226 227 229 231 233 237 240 243 246 247 248 248 250 249 244 236 233 234 235 235 235 235 235 238 243 245 246 246 245 244 244 245 246 248 250 251 253 254 254 253 253 253 253 254 254 255 256 257 258 258 259 260 261
7 359 348 218 219 226 229 231 232 232 231 230 231 232 234 235 235 235 236 238 239 239 240 240 241 242 243 243 243 242 240 238 236 233 232 231 231 233 236 239 241 241 239 237 236 237 241 243 241 237 234 234 234 235 235 235 235 238 243 247 250 251 251 250 249 248 248 248 249 250 252 253 253 253 253 253 254 254 254 254 255 256 257 259 260 261 261
5 360 348 0 187 214 226 233 237 239 238 234 230 229 230 232 234 235 235 237 238 239 239 239 240 241 241 241 242 241 241 240 239 239 238 236 235 236 238 239 239 237 234 231 230 233 237 240 241 241 240 238 237 237 239 242 244 245 247 249 251 253 255 255 255 254 253 252 252 251 252 253 253 253 253 253 253 254 254 255 256 257 258 259 260 261 262
3 359 343 304 237 230 232 234 237 240 242 240 236 231 229 229 230 232 234 235 237 238 239 239 239 239 240 240 239 238 238 238 238 238 238 237 236 237 240 241 241 239 237 234 232 234 238 242 246 249 250 250 249 249 252 255 256 255 254 254 254 254 254 255 256 256 256 256 255 254 254 254 254 254 254 254 254 254 255 256 257 257 258 259 260 261 261
342 345 343 316 277 260 250 244 243 243 242 240 237 235 232 229 228 229 231 233 235 237 238 239 239 239 239 239 239 238 237 236 235 234 234 235 236 238 240 241 243 244 243 241 240 241 244 248 252 255 257 257 257 257 258 260 261 260 259 258 257 256 254 254 254 254 254 255 255 255 255 255 255 256 256 256 257 256 257 257 257 257 258 258 259 260 261
319 316 333 331 302 275 263 254 246 242 243 241 235 232 232 232 231 230 230 231 233 235 236 238 238 238 238 238 238 239 239 238 236 234 234 235 236 238 240 241 243 245 246 247 248 249 251 253 256 257 258 257 257 258 259 260 260 261 261 261 260 258 256 255 254 253 253 253 253 254 254 255 255 256 256 257 257 257 258 258 258 258 258 259 260 260 261
358 271 263 308 315 310 323 318 276 235 238 246 241 232 229 230 232 233 232 231 231 233 235 236 237 238 238 237 237 238 238 239 239 238 237 237 239 241 242 244 245 247 249 251 252 253 254 256 258 259 259 258 257 257 258 259 260 260 260 260 259 259 258 257 256 255 255 254 253 253 252 253 253 254 254 255 256 257 257 258 258 259 259 260 260 261 262
10 9 253 280 292 285 290 304 295 256 240 245 244 235 227 225 227 231 234 235 234 233 234 235 236 237 238 238 238 238 238 239 240 240 240 240 241 243 245 247 248 250 251 253 254 255 255 257 258 258 259 259 259 258 257 257 258 258 259 259 258 258 258 258 257 257 257 256 255 253 252 251 250 250 252 253 254 256 257 257 258 258 259 260 260 261 262
356 358 347 309 286 255 251 263 264 261 255 240 227 222 223 220 218 221 227 232 235 236 235 235 236 237 238 238 239 239 240 240 241 242 242 243 243 244 246 248 249 251 252 253 254 255 255 256 257 258 258 259 258 257 256 255 256 256 258 259 260 260 260 259 259 258 256 254 253 252 252 252 251 251 252 253 254 255 256 257 258 258 259 259 260 261 262
344 344 341 336 336 14 192 227 233 238 243 232 215 212 215 214 210 210 213 218 225 230 233 235 237 237 237 238 238 239 240 240 241 242 243 244 244 244 245 246 248 250 252 252 253 254 255 255 256 256 256 256 256 256 256 255 255 255 255 257 258 259 259 260 263 265 263 260 257 255 253 253 252 252 252 253 254 255 256 256 257 258 258 259 260 261 262
333 336 334 328 321 320 343 140 192 209 214 210 209 217 221 215 204 199 198 200 206 214 221 227 232 235 236 236 237 237 237 238 240 241 242 243 244 245 245 246 246 248 249 251 252 253 253 253 253 253 253 253 254 255 255 255 255 254 252 251 252 253 251 250 250 252 254 257 258 258 256 254 252 251 251 251 252 253 254 254 255 255 257 258 258 260 261
319 323 325 323 317 309 303 296 207 189 191 189 196 212 222 216 203 195 192 191 191 194 200 209 219 225 227 230 233 235 235 236 237 238 240 241 242 243 244 245 245 246 247 248 249 250 250 251 250 250 250 250 250 251 253 253 253 252 250 247 247 249 246 239 231 228 232 240 248 253 254 252 250 248 247 249 250 252 253 253 254 255 256 258 259 261 262
308 309 310 310 308 305 299 292 277 254 223 186 179 189 200 205 204 201 198 195 192 191 192 199 208 213 215 218 223 228 230 232 234 236 237 239 240 241 241 242 243 244 244 245 246 247 248 249 249 250 250 250 250 250 251 251 252 252 250 247 245 246 243 235 228 228 234 240 245 251 254 253 250 249 249 251 254 256 258 259 260 261 262 262 262 263 264
296 295 295 295 296 295 294 292 286 273 258 241 209 184 181 188 196 199 201 201 200 196 195 200 207 212 212 211 213 217 221 225 228 230 231 233 234 236 237 238 239 241 242 243 244 244 245 246 246 248 249 249 250 250 252 253 253 253 252 248 247 246 244 240 239 246 255 260 260 262 263 262 260 257 256 256 257 259 260 261 263 263 264 264 265 266 267
292 287 282 280 282 283 283 284 283 277 269 260 249 229 202 187 186 190 194 199 201 201 201 203 208 213 216 215 214 214 217 220 223 225 226 227 228 231 232 233 234 236 237 238 237 237 238 240 240 238 237 239 243 245 245 246 249 251 251 249 248 247 246 245 248 254 261 266 268 268 267 265 264 263 261 260 259 259 260 260 261 262 263 264 265 266 268
296 291 282 274 270 268 269 271 273 272 269 265 260 253 239 221 206 197 192 192 195 199 201 202 205 208 212 214 215 215 217 218 220 222 224 226 227 230 232 234 235 236 237 236 233 230 231 233 234 232 232 236 241 241 238 237 239 242 244 245 246 246 247 248 252 256 260 263 265 266 266 265 265 265 265 264 263 263 263 264 265 266 267 268 268 268 268
Height
5705 5711 5716 5720 5725 5731 5737 5742 5746 5750 5753 5756 5759 5763 5769 5775 5778 5783 5791 5796 5800 5805 5808 5810 5813 5816 5818 5820 5823 5826 5828 5830 5832 5834 5835 5836 5837 5839 5841 5844 5847 5850 5853 5857 5859 5861 5863 5865 5867 5870 5871 5872 5874 5875 5877 5880 5882 5885 5887 5890 5892 5894 5897 5899 5901 5903 5905 5907 5909 5912 5914 5916 5919 5920 5922 5923 5925 5926 5927 5928 5929 5930 5930 5931 5931 5932 5932
5703 5708 5713 5717 5722 5729 5734 5738 5740 5742 5746 5751 5756 5762 5767 5772 5776 5783 5790 5793 5798 5804 5806 5809 5811 5813 5816 5817 5819 5822 5826 5828 5830 5832 5833 5834 5835 5837 5840 5842 5845 5848 5851 5855 5857 5859 5861 5863 5866 5868 5870 5871 5873 5875 5876 5879 5881 5883 5886 5889 5891 5894 5896 5898 5899 5901 5903 5905 5907 5910 5912 5914 5916 5918 5920 5921 5923 5924 5925 5926 5927 5928 5929 5930 5930 5930 5930
5700 5704 5709 5714 5720 5726 5729 5731 5732 5737 5743 5749 5755 5761 5766 5770 5774 5780 5785 5789 5795 5801 5803 5805 5808 5810 5813 5815 5816 5819 5823 5825 5828 5830 5831 5832 5834 5836 5838 5840 5843 5846 5849 5852 5854 5857 5859 5862 5865 5867 5868 5870 5872 5873 5875 5877 5880 5882 5885 5887 5890 5892 5894 5896 5897 5899 5902 5904 5906 5908 5910 5912 5914 5916 5917 5919 5920 5921 5923 5924 5925 5926 5927 5928 5928 5928 5928
5696 5700 5705 5711 5718 5722 5724 5725 5729 5735 5742 5747 5753 5758 5762 5767 5772 5778 5781 5786 5792 5797 5799 5801 5804 5808 5811 5813 5815 5817 5820 5823 5826 5827 5829 5831 5832 5834 5836 5838 5841 5844 5847 5850 5852 5855 5858 5860 5863 5865 5867 5869 5871 5873 5875 5876 5879 5881 5883 5886 5888 5890 5892 5894 5896 5898 5900 5902 5904 5906 5907 5909 5911 5913 5915 5917 5918 5919 5921 5922 5923 5924 5925 5926 5926 5926 5927
5692 5695 5701 5709 5714 5717 5719 5721 5726 5732 5738 5744 5749 5754 5759 5764 5769 5774 5777 5782 5788 5792 5794 5797 5801 5805 5808 5811 5813 5815 5817 5820 5823 5825 5827 5829 5831 5833 5835 5837 5840 5842 5845 5848 5851 5854 5857 5859 5862 5865 5866 5868 5870 5873 5874 5876 5878 5880 5882 5885 5887 5888 5890 5893 5895 5897 5899 5900 5902 5904 5905 5907 5908 5910 5913 5915 5916 5917 5918 5920 5921 5922 5923 5924 5924 5925 5925
5687 5691 5698 5707 5709 5710 5714 5718 5722 5727 5734 5740 5746 5751 5755 5759 5764 5769 5774 5779 5785 5789 5790 5794 5798 5802 5805 5808 5810 5813 5815 5817 5821 5824 5826 5828 5829 5831 5834 5836 5839 5841 5844 5847 5850 5853 5856 5859 5862 5863 5865 5867 5869 5871 5873 5875 5877 5879 5881 5884 5885 5887 5889 5891 5894 5895 5897 5899 5900 5902 5903 5905 5906 5909 5911 5913 5914 5915 5916 5918 5919 5920 5921 5922 5922 5922 5923
5683 5688 5696 5702 5703 5706 5711 5714 5717 5723 5730 5736 5741 5746 5750 5755 5761 5766 5772 5777 5782 5786 5788 5790 5794 5797 5801 5805 5807 5810 5812 5815 5818 5821 5824 5826 5827 5829 5832 5835 5837 5839 5842 5845 5848 5852 5854 5857 5859 5861 5863 5865 5867 5869 5871 5874 5876 5878 5880 5882 5884 5886 5888 5891 5893 5894 5896 5898 5899 5900 5902 5903 5905 5907 5909 5910 5912 5913 5914 5916 5917 5918 5919 5920 5920 5920 5921
5679 5684 5691 5695 5699 5704 5709 5711 5714 5721 5729 5735 5740 5744 5748 5754 5759 5764 5770 5775 5779 5783 5785 5787 5790 5793 5797 5801 5804 5807 5809 5812 5816 5819 5822 5824 5825 5828 5831 5834 5836 5838 5841 5844 5848 5851 5853 5855 5857 5859 5861 5863 5865 5867 5870 5872 5875 5877 5879 5882 5884 5886 5888 5890 5892 5893 5895 5897 5898 5899 5900 5902 5904 5905 5907 5908 5909 5910 5912 5913 5914 5916 5917 5918 5918 5918 5918
5674 5680 5686 5693 5698 5702 5705 5708 5713 5719 5726 5733 5738 5742 5747 5751 5757 5762 5767 5772 5776 5779 5781 5784 5787 5790 5794 5798 5801 5803 5806 5809 5813 5817 5820 5821 5822 5826 5829 5832 5835 5837 5840 5843 5846 5848 5850 5853 5855 5857 5859 5860 5863 5865 5868 5871 5873 5876 5878 5881 5883 5885 5887 5889 5891 5892 5894 5895 5897 5898 5899 5901 5902 5903 5904 5905 5906 5908 5909 5911 5912 5913 5914 5915 5915 5916 5916
5671 5677 5684 5691 5695 5697 5701 5706 5710 5714 5722 5729 5735 5739 5743 5747 5753 5759 5764 5769 5773 5775 5778 5780 5784 5788 5792 5795 5797 5800 5803 5806 5810 5814 5817 5818 5820 5822 5826 5829 5832 5834 5837 5839 5842 5844 5847 5850 5853 5855 5856 5858 5860 5863 5865 5869 5871 5874 5877 5880 5882 5884 5886 5888 5889 5891 5893 5894 5895 5897 5898 5899 5900 5901 5902 5903 5904 5905 5907 5908 5909 5910 5911 5912 5913 5913 5913
5669 5674 5680 5686 5691 5694 5698 5704 5707 5710 5717 5725 5731 5736 5740 5745 5751 5756 5761 5766 5770 5772 5774 5777 5780 5785 5789 5791 5793 5796 5800 5804 5807 5811 5814 5817 5819 5820 5823 5826 5828 5831 5833 5835 5837 5840 5843 5845 5848 5851 5853 5855 5858 5861 5864 5866 5869 5872 5875 5878 5880 5883 5884 5886 5887 5889 5890 5892 5894 5895 5896 5897 5898 5899 5899 5900 5901 5903 5904 5905 5906 5907 5908 5909 5910 5911 5911
5665 5671 5676 5682 5688 5691 5695 5701 5704 5707 5715 5723 5729 5733 5737 5742 5748 5754 5759 5763 5767 5769 5771 5774 5778 5783 5786 5788 5791 5794 5797 5801 5805 5809 5812 5815 5817 5819 5822 5824 5826 5828 5829 5831 5834 5836 5839 5841 5844 5847 5850 5853 5856 5859 5862 5864 5867 5870 5873 5876 5878 5879 5881 5883 5885 5886 5888 5890 5891 5893 5894 5895 5896 5897 5897 5898 5899 5900 5902 5902 5903 5904 5905 5907 5908 5908 5908
5661 5668 5673 5679 5685 5689 5692 5696 5700 5704 5712 5720 5724 5728 5732 5738 5744 5750 5755 5760 5763 5765 5768 5771 5775 5779 5782 5785 5788 5791 5794 5799 5802 5806 5809 5812 5815 5817 5820 5822 5824 5826 5827 5829 5831 5833 5836 5839 5843 5845 5848 5851 5854 5857 5859 5861 5864 5867 5870 5871 5873 5875 5878 5880 5882 5883 5885 5887 5889 5890 5891 5893 5894 5895 5895 5896 5897 5898 5899 5899 5900 5901 5903 5904 5905 5905 5906
5658 5663 5668 5674 5681 5685 5689 5692 5696 5701 5708 5714 5718 5723 5729 5735 5741 5747 5752 5756 5759 5762 5765 5768 5771 5775 5778 5781 5784 5787 5791 5795 5799 5803 5806 5809 5812 5815 5817 5820 5822 5824 5826 5828 5830 5833 5836 5839 5842 5844 5846 5849 5851 5854 5856 5859 5861 5863 5865 5867 5869 5872 5874 5877 5879 5881 5883 5884 5886 5887 5888 5890 5891 5892 5893 5894 5894 5895 5896 5896 5897 5898 5900 5901 5902 5902 5903
5653 5657 5662 5669 5676 5681 5686 5689 5693 5697 5703 5708 5713 5719 5725 5732 5738 5744 5749 5753 5756 5759 5761 5764 5766 5770 5774 5778 5781 5783 5787 5791 5796 5800 5803 5806 5809 5812 5814 5817 5820 5822 5825 5827 5830 5832 5835 5837 5839 5841 5844 5847 5849 5851 5854 5856 5858 5860 5862 5864 5867 5869 5872 5874 5877 5879 5880 5881 5882 5884 5885 5887 5888 5890 5890 5891 5892 5892 5893 5893 5894 5895 5897 5898 5899 5899 5900
5649 5653 5659 5666 5673 5678 5683 5685 5689 5693 5698 5702 5707 5713 5720 5728 5735 5740 5744 5749 5752 5754 5756 5759 5762 5766 5770 5774 5777 5780 5783 5787 5793 5798 5801 5803 5806 5809 5812 5815 5818 5820 5823 5825 5827 5830 5832 5834 5836 5839 5841 5844 5846 5848 5851 5853 5855 5857 5860 5862 5864 5867 5869 5872 5874 5875 5877 5878 5879 5881 5882 5884 5885 5887 5888 5888 5889 5890 5890 5891 5891 5892 5893 5895 5896 5897 5898
5647 5653 5658 5664 5669 5673 5677 5681 5685 5689 5694 5697 5700 5707 5716 5725 5730 5733 5738 5743 5747 5749 5750 5752 5756 5761 5765 5769 5773 5776 5780 5784 5789 5794 5798 5801 5803 5806 5809 5812 5815 5818 5821 5823 5825 5827 5830 5832 5834 5836 5838 5840 5843 5845 5848 5850 5851 5854 5856 5858 5861 5863 5866 5868 5870 5872 5873 5875 5876 5877 5878 5880 5882 5883 5884 5885 5886 5887 5888 5888 5889 5889 5890 5892 5893 5894 5895
5645 5651 5655 5658 5663 5668 5673 5678 5682 5686 5691 5694 5696 5701 5711 5719 5723 5726 5730 5736 5740 5742 5743 5745 5749 5755 5759 5764 5769 5773 5776 5781 5786 5790 5795 5798 5800 5803 5806 5809 5812 5816 5818 5820 5822 5825 5827 5829 5831 5833 5836 5838 5840 5842 5844 5846 5848 5850 5852 5854 5857 5859 5861 5863 5865 5867 5869 5871 5873 5874 5875 5876 5878 5879 5880 5882 5883 5884 5885 5886 5886 5887 5887 5888 5890 5891 5892
5639 5645 5647 5651 5658 5664 5669 5675 5680 5684 5688 5691 5691 5695 5703 5711 5717 5720 5724 5730 5733 5735 5737 5740 5743 5749 5755 5759 5763 5768 5772 5777 5782 5786 5791 5795 5797 5800 5802 5805 5809 5812 5814 5817 5820 5822 5824 5826 5829 5831 5833 5835 5838 5840 5841 5843 5844 5846 5848 5850 5853 5855 5857 5859 5860 5862 5865 5867 5869 5870 5872 5873 5874 5875 5876 5877 5879 5881 5882 5883 5884 5884 5885 5886 5887 5888 5889
5633 5638 5641 5645 5653 5660 5666 5672 5677 5680 5684 5686 5687 5691 5697 5704 5710 5714 5717 5723 5727 5730 5735 5737 5738 5743 5750 5754 5758 5763 5767 5772 5777 5781 5786 5791 5794 5797 5799 5802 5805 5808 5810 5813 5817 5819 5821 5824 5826 5828 5831 5833 5835 5837 5839 5840 5841 5843 5844 5846 5848 5850 5852 5854 5856 5858 5860 5862 5864 5866 5868 5870 5871 5872 5873 5874 5875 5877 5878 5880 5880 5881 5882 5883 5884 5885 5886
5630 5634 5638 5643 5650 5658 5664 5671 5674 5677 5680 5683 5685 5689 5694 5699 5705 5709 5712 5717 5721 5725 5731 5734 5734 5738 5746 5751 5754 5758 5762 5767 5771 5776 5781 5786 5790 5793 5797 5799 5801 5804 5806 5809 5813 5815 5818 5820 5823 5825 5827 5830 5832 5834 5835 5837 5839 5840 5842 5844 5845 5847 5848 5850 5852 5853 5855 5857 5859 5861 5863 5865 5867 5869 5870 5871 5872 5873 5874 5875 5876 5878 5878 5879 5880 5881 5882
5632 5636 5640 5645 5651 5658 5664 5669 5673 5674 5678 5681 5683 5688 5692 5695 5699 5703 5707 5711 5715 5719 5726 5730 5730 5734 5741 5748 5752 5755 5758 5762 5767 5771 5776 5781 5785 5789 5793 5796 5798 5800 5803 5806 5808 5811 5814 5817 5819 5821 5824 5826 5828 5830 5832 5834 5835 5837 5839 5840 5842 5844 5846 5847 5849 5850 5851 5853 5855 5857 5859 5860 5862 5864 5865 5867 5868 5869 5869 5870 5872 5873 5875 5875 5876 5877 5878
5635 5640 5644 5648 5653 5659 5664 5668 5671 5673 5676 5678 5681 5685 5689 5691 5695 5699 5702 5705 5709 5714 5720 5725 5727 5730 5736 5744 5749 5752 5755 5759 5764 5768 5772 5776 5780 5784 5788 5792 5795 5797 5799 5802 5804 5807 5810 5812 5815 5817 5820 5822 5824 5827 5829 5830 5832 5834 5835 5837 5839 5840 5842 5844 5846 5847 5849 5850 5852 5853 5855 5856 5858 5859 5861 5862 5863 5864 5865 5866 5867 5869 5870 5871 5872 5872 5873
5637 5640 5644 5647 5652 5658 5662 5665 5668 5672 5674 5675 5678 5683 5686 5688 5692 5697 5700 5703 5707 5710 5715 5720 5724 5726 5731 5738 5744 5749 5752 5756 5760 5764 5768 5772 5776 5780 5783 5788 5791 5794 5796 5798 5800 5803 5806 5809 5811 5814 5816 5819 5821 5823 5825 5827 5829 5830 5832 5833 5835 5837 5838 5840 5842 5844 5845 5847 5849 5850 5851 5853 5854 5855 5856 5858 5859 5860 5861 5862 5863 5864 5865 5866 5867 5868 5869
5638 5639 5642 5647 5652 5657 5660 5662 5665 5669 5671 5672 5676 5679 5682 5685 5690 5695 5698 5701 5705 5709 5713 5717 5720 5722 5727 5733 5739 5744 5749 5752 5756 5760 5765 5769 5772 5776 5779 5783 5787 5790 5792 5795 5797 5799 5802 5805 5808 5810 5813 5815 5818 5820 5822 5823 5825 5827 5829 5830 5832 5833 5835 5837 5838 5840 5842 5843 5845 5846 5847 5848 5850 5851 5852 5853 5854 5855 5857 5858 5859 5860 5860 5861 5862 5863 5864
5637 5638 5639 5643 5648 5653 5656 5659 5662 5665 5667 5669 5672 5674 5677 5681 5687 5692 5694 5696 5700 5705 5710 5714 5718 5720 5724 5729 5734 5739 5744 5748 5752 5756 5761 5765 5768 5772 5775 5778 5782 5786 5789 5792 5794 5797 5799 5801 5804 5806 5809 5812 5814 5816 5818 5820 5822 5823 5825 5827 5828 5830 5832 5833 5835 5836 5838 5839 5841 5842 5843 5844 5845 5846 5848 5849 5850 5851 5852 5853 5854 5855 5856 5856 5858 5859 5860
5635 5635 5635 5639 5644 5649 5652 5654 5657 5659 5661 5665 5668 5670 5672 5676 5681 5686 5689 5691 5695 5700 5705 5710 5714 5717 5721 5725 5730 5735 5739 5744 5748 5752 5757 5761 5764 5768 5771 5775 5778 5781 5785 5788 5790 5793 5795 5797 5800 5802 5805 5807 5810 5812 5814 5816 5818 5820 5822 5823 5825 5826 5828 5829 5831 5832 5834 5835 5837 5838 5840 5841 5842 5843 5843 5844 5845 5846 5847 5848 5849 5850 5851 5852 5853 5854 5855
5633 5634 5635 5638 5642 5644 5644 5646 5648 5651 5655 5660 5664 5666 5668 5671 5675 5680 5684 5687 5691 5696 5701 5705 5710 5713 5717 5722 5726 5730 5734 5739 5743 5747 5752 5756 5760 5763 5767 5770 5774 5777 5780 5783 5786 5789 5792 5794 5796 5798 5800 5803 5805 5808 5810 5812 5814 5816 5818 5820 5821 5823 5824 5825 5827 5828 5830 5831 5832 5834 5835 5837 5838 5839 5839 5841 5842 5842 5843 5844 5845 5845 5846 5847 5848 5849 5850
5630 5632 5633 5635 5638 5640 5641 5643 5647 5649 5652 5655 5658 5661 5664 5666 5670 5675 5679 5683 5687 5692 5697 5702 5706 5709 5713 5718 5722 5726 5730 5734 5738 5742 5746 5751 5755 5758 5762 5765 5769 5772 5775 5779 5782 5785 5788 5790 5792 5794 5796 5799 5801 5804 5806 5808 5810 5811 5813 5815 5817 5818 5820 5821 5823 5824 5825 5827 5828 5830 5831 5832 5834 5835 5836 5837 5837 5838 5839 5840 5840 5841 5841 5842 5844 5845 5846
5625 5627 5628 5630 5634 5637 5640 5643 5646 5648 5649 5649 5652 5656 5659 5662 5666 5670 5674 5678 5682 5686 5691 5697 5702 5706 5710 5714 5718 5722 5726 5730 5734 5738 5742 5746 5750 5753 5757 5760 5763 5767 5770 5774 5777 5780 5783 5785 5787 5790 5793 5795 5797 5799 5801 5803 5805 5807 5808 5810 5812 5813 5815 5816 5818 5820 5821 5823 5824 5825 5827 5828 5829 5830 5831 5832 5833 5834 5834 5835 5835 5835 5836 5838 5839 5841 5841
5619 5621 5623 5626 5630 5634 5636 5637 5639 5641 5643 5644 5646 5650 5654 5658 5663 5667 5670 5674 5678 5682 5686 5691 5697 5702 5707 5710 5714 5717 5721 5726 5730 5733 5737 5741 5744 5748 5752 5755 5759 5762 5765 5769 5772 5775 5777 5780 5782 5785 5788 5790 5793 5795 5797 5799 5800 5802 5804 5805 5807 5808 5810 5811 5813 5815 5816 5818 5819 5821 5822 5823 5824 5825 5826 5827 5828 5829 5829 5829 5829 5831 5832 5833 5835 5836 5836
5613 5614 5616 5619 5623 5627 5630 5631 5632 5635 5637 5638 5639 5643 5648 5654 5659 5664 5667 5670 5674 5678 5683 5687 5692 5697 5702 5706 5711 5714 5717 5722 5726 5729 5732 5736 5740 5743 5747 5750 5753 5757 5760 5763 5766 5769 5772 5774 5777 5780 5782 5785 5787 5789 5791 5793 5795 5797 5799 5800 5802 5803 5804 5806 5808 5810 5811 5812 5814 5815 5817 5818 5819 5821 5821 5821 5822 5823 5824 5824 5825 5826 5828 5828 5829 5830 5831
5608 5608 5609 5611 5614 5619 5623 5625 5627 5630 5632 5633 5634 5637 5642 5649 5655 5660 5663 5667 5670 5675 5679 5683 5688 5692 5696 5701 5706 5710 5713 5717 5721 5724 5728 5731 5735 5739 5742 5745 5748 5751 5755 5758 5761 5764 5766 5769 5772 5775 5777 5779 5781 5783 5785 5787 5789 5791 5793 5795 5797 5798 5800 5801 5803 5804 5806 5807 5809 5810 5811 5813 5815 5815 5816 5816 5816 5817 5818 5819 5820 5821 5822 5822 5822 5823 5823
5601 5601 5601 5602 5605 5609 5614 5618 5621 5623 5626 5629 5632 5635 5639 5644 5649 5654 5658 5662 5666 5670 5675 5679 5682 5687 5691 5696 5700 5704 5708 5712 5715 5719 5722 5726 5730 5734 5737 5740 5742 5746 5749 5753 5756 5758 5761 5763 5765 5768 5771 5774 5776 5778 5780 5782 5783 5785 5787 5789 5791 5793 5795 5796 5798 5799 5800 5802 5803 5804 5805 5807 5808 5809 5810 5811 5811 5811 5812 5813 5813 5814 5814 5815 5815 5815 5816
5597 5595 5594 5595 5598 5602 5606 5610 5614 5618 5622 5626 5630 5634 5637 5639 5642 5646 5651 5657 5661 5665 5670 5674 5677 5681 5686 5690 5695 5698 5702 5706 5710 5713 5717 5721 5725 5728 5732 5735 5738 5741 5744 5748 5751 5753 5755 5757 5759 5762 5765 5768 5770 5773 5775 5776 5778 5780 5781 5783 5785 5787 5789 5791 5792 5794 5795 5796 5797 5798 5799 5800 5802 5803 5803 5804 5805 5805 5805 5805 5805 5806 5807 5807 5807 5808 5808
5595 5592 5590 5591 5593 5597 5600 5604 5608 5613 5617 5621 5625 5629 5632 5634 5636 5639 5645 5651 5655 5659 5663 5668 5671 5675 5679 5684 5689 5693 5696 5700 5704 5708 5712 5715 5719 5723 5726 5730 5733 5736 5740 5743 5745 5748 5750 5751 5753 5756 5759 5762 5764 5767 5769 5771 5773 5774 5776 5777 5779 5781 5783 5785 5786 5788 5789 5790 5791 5792 5793 5794 5795 5796 5797 5797 5798 5798 5798 5798 5798 5799 5799 5799 5800 5800 5801
5594 5591 5589 5589 5590 5593 5596 5599 5602 5606 5610 5614 5618 5621 5624 5628 5632 5635 5640 5644 5649 5653 5657 5660 5664 5668 5672 5677 5682 5687 5691 5695 5699 5703 5706 5709 5713 5717 5721 5725 5728 5731 5734 5736 5739 5742 5745 5747 5748 5751 5753 5756 5759 5762 5764 5766 5768 5769 5770 5772 5773 5775 5776 5778 5780 5781 5783 5784 5785 5785 5786 5788 5789 5789 5790 5790 5790 5790 5790 5790 5791 5791 5792 5792 5793 5794 5794
5594 5592 5590 5590 5591 5593 5595 5597 5600 5602 5604 5607 5611 5614 5618 5622 5627 5631 5634 5638 5642 5646 5650 5654 5658 5662 5666 5671 5675 5680 5684 5689 5694 5697 5701 5705 5708 5712 5715 5719 5722 5725 5728 5731 5734 5737 5740 5742 5744 5746 5749 5751 5753 5756 5758 5760 5762 5764 5765 5766 5767 5769 5770 5771 5773 5774 5775 5777 5778 5779 5780 5781 5782 5782 5782 5782 5782 5781 5781 5782 5783 5783 5784 5785 5786 5787 5787
5595 5593 5592 5592 5592 5594 5596 5597 5598 5599 5600 5601 5604 5607 5611 5616 5621 5625 5628 5631 5635 5638 5642 5647 5651 5655 5660 5665 5669 5673 5678 5683 5688 5692 5696 5700 5703 5706 5709 5712 5715 5718 5722 5726 5728 5731 5733 5737 5740 5742 5744 5747 5748 5750 5752 5754 5756 5758 5760 5761 5762 5763 5764 5764 5765 5766 5767 5769 5770 5772 5773 5774 5774 5774 5774 5774 5774 5774 5774 5774 5775 5776 5777 5777 5778 5779 5779
5597 5595 5594 5593 5593 5594 5594 5595 5596 5596 5597 5597 5598 5601 5604 5608 5613 5618 5621 5625 5628 5632 5636 5640 5645 5649 5654 5659 5664 5668 5673 5678 5684 5688 5691 5695 5698 5701 5704 5706 5709 5712 5716 5719 5723 5725 5728 5731 5734 5737 5739 5741 5743 5744 5745 5747 5749 5751 5752 5754 5756 5758 5758 5758 5758 5759 5760 5761 5762 5763 5764 5765 5766 5766 5766 5766 5767 5767 5766 5767 5768 5768 5769 5770 5770 5771 5771
5598 5596 5595 5594 5594 5593 5593 5593 5593 5594 5594 5594 5595 5597 5599 5601 5605 5609 5613 5617 5621 5625 5630 5635 5639 5643 5648 5653 5658 5662 5667 5673 5678 5683 5687 5690 5693 5696 5699 5701 5704 5707 5710 5713 5716 5720 5723 5725 5728 5731 5733 5735 5736 5737 5738 5739 5740 5742 5744 5747 5749 5750 5751 5752 5752 5752 5753 5753 5754 5755 5756 5756 5757 5757 5758 5758 5758 5758 5759 5759 5760 5760 5761 5761 5762 5762 5762
5598 5597 5596 5595 5594 5593 5592 5592 5592 5592 5592 5592 5593 5594 5595 5597 5600 5602 5605 5609 5614 5619 5624 5629 5633 5638 5642 5647 5652 5656 5661 5666 5670 5676 5680 5684 5687 5690 5693 5695 5698 5701 5704 5706 5710 5714 5716 5719 5721 5724 5726 5728 5729 5730 5731 5732 5733 5735 5737 5739 5740 5741 5742 5744 5744 5744 5745 5746 5746 5747 5748 5748 5748 5749 5749 5749 5749 5750 5750 5750 5751 5752 5752 5753 5753 5754 5754
5599 5598 5596 5595 5593 5593 5592 5591 5590 5590 5591 5591 5591 5591 5592 5593 5595 5598 5600 5603 5607 5612 5617 5623 5628 5632 5636 5640 5645 5650 5654 5658 5662 5668 5673 5677 5680 5683 5686 5689 5692 5695 5698 5700 5703 5706 5709 5712 5714 5716 5717 5720 5722 5723 5725 5726 5727 5728 5730 5731 5731 5732 5733 5734 5735 5736 5736 5737 5738 5739 5739 5739 5739 5739 5739 5740 5740 5740 5741 5742 5742 5743 5743 5744 5745 5745 5745
5599 5598 5596 5595 5593 5592 5591 5590 5590 5589 5589 5590 5590 5590 5590 5590 5592 5594 5597 5600 5603 5606 5611 5616 5621 5625 5629 5633 5638 5643 5647 5651 5655 5660 5664 5669 5674 5677 5679 5681 5685 5688 5690 5693 5696 5699 5702 5705 5706 5708 5709 5711 5713 5716 5717 5719 5720 5721 5722 5722 5722 5723 5723 5724 5726 5727 5728 5728 5728 5728 5728 5728 5729 5729 5729 5730 5730 5731 5732 5733 5733 5734 5734 5735 5735 5735 5736
5599 5597 5596 5595 5593 5592 5591 5590 5589 5589 5589 5589 5589 5590 5589 5589 5589 5590 5593 5596 5600 5603 5607 5611 5615 5619 5623 5627 5631 5635 5639 5644 5648 5652 5657 5662 5666 5670 5672 5674 5677 5679 5683 5686 5689 5692 5695 5697 5699 5700 5702 5703 5704 5707 5709 5711 5712 5714 5714 5714 5714 5714 5714 5714 5715 5717 5718 5718 5718 5717 5718 5718 5718 5719 5719 5720 5720 5721 5722 5723 5723 5724 5725 5725 5726 5726 5727
5599 5597 5595 5594 5593 5592 5591 5590 5589 5589 5588 5589 5589 5590 5590 5590 5589 5589 5590 5593 5596 5599 5603 5606 5610 5614 5617 5620 5624 5628 5633 5637 5641 5645 5649 5654 5658 5661 5665 5668 5670 5673 5676 5679 5682 5685 5688 5690 5691 5693 5694 5695 5697 5698 5700 5702 5704 5706 5707 5708 5708 5708 5707 5706 5706 5706 5706 5706 5706 5707 5707 5707 5707 5707 5708 5709 5710 5711 5712 5712 5713 5714 5715 5716 5716 5717 5718
5597 5596 5595 5593 5592 5591 5590 5589 5588 5588 5588 5588 5588 5589 5589 5589 5590 5590 5591 5592 5594 5596 5600 5603 5606 5609 5612 5615 5619 5622 5627 5631 5635 5638 5642 5646 5650 5653 5656 5660 5663 5666 5669 5672 5674 5676 5679 5681 5683 5685 5686 5687 5689 5690 5691 5693 5695 5697 5699 5701 5702 5702 5701 5700 5699 5698 5696 5694 5692 5693 5694 5695 5695 5695 5697 5698 5699 5700 5701 5701 5702 5704 5705 5706 5708 5709 5709
5595 5595 5594 5592 5591 5589 5589 5588 5587 5587 5586 5586 5587 5587 5587 5588 5589 5590 5591 5592 5594 5595 5598 5600 5602 5605 5608 5611 5614 5617 5621 5625 5628 5632 5636 5639 5642 5645 5648 5652 5655 5658 5661 5663 5665 5667 5669 5672 5674 5676 5677 5679 5681 5682 5683 5685 5687 5689 5692 5694 5695 5696 5696 5695 5693 5692 5691 5689 5687 5687 5688 5688 5687 5688 5688 5689 5690 5691 5692 5693 5694 5696 5698 5699 5701 5702 5702
5593 5592 5592 5591 5589 5588 5587 5587 5586 5585 5585 5585 5585 5585 5586 5586 5587 5588 5589 5591 5592 5594 5596 5598 5600 5602 5604 5607 5610 5613 5616 5619 5622 5626 5629 5632 5635 5638 5641 5644 5647 5650 5652 5655 5657 5659 5661 5663 5665 5667 5668 5670 5673 5675 5676 5677 5679 5682 5684 5686 5688 5690 5691 5690 5688 5688 5688 5688 5687 5687 5687 5687 5687 5687 5687 5686 5686 5687 5688 5689 5690 5691 5692 5693 5694 5695 5695
5590 5590 5589 5589 5588 5587 5586 5585 5584 5584 5583 5583 5583 5583 5584 5584 5585 5586 5587 5588 5590 5591 5594 5596 5598 5600 5602 5604 5607 5609 5612 5615 5618 5620 5623 5626 5629 5631 5634 5637 5639 5642 5644 5647 5649 5652 5654 5656 5658 5660 5662 5663 5665 5667 5669 5671 5673 5675 5677 5678 5680 5681 5683 5683 5682 5681 5680 5681 5682 5683 5684 5684 5685 5685 5685 5685 5684 5684 5684 5685 5686 5686 5686 5687 5687 5687 5687
5587 5587 5587 5586 5586 5585 5585 5584 5583 5582 5582 5581 5581 5581 5582 5582 5583 5584 5585 5586 5587 5589 5590 5592 5595 5597 5599 5602 5604 5607 5609 5612 5614 5616 5618 5621 5623 5625 5627 5630 5633 5635 5638 5640 5643 5645 5647 5650 5652 5655 5657 5658 5660 5661 5662 5664 5665 5667 5669 5670 5672 5673 5674 5675 5675 5674 5673 5673 5674 5675 5676 5677 5678 5679 5679 5679 5679 5679 5679 5680 5680 5680 5680 5680 5680 5679 5679
5584 5583 5583 5583 5583 5583 5583 5582 5581 5581 5580 5580 5579 5579 5580 5580 5581 5582 5583 5584 5585 5586 5588 5589 5591 5594 5596 5598 5601 5603 5605 5608 5610 5612 5614 5616 5618 5621 5622 5625 5627 5630 5633 5635 5637 5640 5642 5645 5647 5649 5651 5653 5654 5656 5656 5657 5658 5660 5661 5663 5664 5665 5666 5668 5668 5669 5668 5668 5668 5668 5669 5669 5670 5670 5671 5671 5672 5672 5673 5673 5673 5673 5673 5673 5672 5671 5671